Damascus, Syria

10:27 AM EET on December 14, 2017 (GMT +0200)
Damascus International

Weather History for OSDI - May, 2014

Change the Weather History Date:

Monday, May 5, 2014

  Actual Average Record
Temperature  
Mean Temperature 78 °F -  
Max Temperature 96 °F 86 °F 96 °F (1998)
Min Temperature 60 °F 51 °F 39 °F (2005)
Cooling Degree Days 13    
Growing Degree Days 28 (Base 50)    
Moisture  
Dew Point 27 °F    
Average Humidity 14    
Maximum Humidity 26    
Minimum Humidity 4    
Precipitation  
Precipitation 0.00 in 0.00 in - ()
Sea Level Pressure  
Sea Level Pressure 29.92 in    
Wind  
Wind Speed 7 mph ()    
Max Wind Speed 25 mph    
Max Gust Speed -    
Visibility 7.3 miles    
Events      
Averages and records for this station are not official NWS values.
T = Trace of Precipitation, MM = Missing Value Source: Averaged Metar Reports

Daily Weather History Graph

Daily Weather History Graph

Search for Another Location

Airport or City:

Trip Planner

Search our weather history database for the weather conditions in past years. The results will help you decide how hot, cold, wet, or windy it might be!

Date:

Astronomy

May. 05, 2014 Rise Set
Actual Time 5:42 AM EEST 7:19 PM EEST
Civil Twilight 5:15 AM EEST 7:46 PM EEST
Nautical Twilight 4:43 AM EEST 8:18 PM EEST
Astronomical Twilight 4:09 AM EEST 8:52 PM EEST
Moon 10:42 AM EEST (5/5) No Moon Set
Length of Visible Light 14h 30m
Length of Day
13h 37m
Waxing Crescent, 34% of the Moon is Illuminated
May 5
Waxing Crescent
May 7
First Quarter
May 14
Full
May 21
Last Quarter
May 28
New

Hourly Weather History & Observations

Time (EEST) Temp. Dew Point Humidity Pressure Visibility Wind Dir Wind Speed Gust Speed Precip Events Conditions
12:00 AM 69 °F 31 °F 14% 29.87 in 9 mi Calm Calm - -  
12:00 AM 68.0 °F 24.8 °F 20% 30.01 in - North 6.9 mph - N/A   Clear
1:00 AM 69.8 °F 24.8 °F 18% 30.01 in - NE 10.4 mph - N/A   Clear
2:00 AM 69.8 °F 26.6 °F 20% 29.98 in - NNE 9.2 mph - N/A   Clear
3:00 AM 66 °F 31 °F 16% 29.84 in 9 mi NNE 6.7 mph - -  
3:00 AM 66.2 °F 26.6 °F 23% 29.98 in - NNE 5.8 mph - N/A   Clear
4:00 AM 62.6 °F 26.6 °F 26% 29.98 in - North 6.9 mph - N/A   Clear
5:00 AM 62.6 °F 26.6 °F 26% 29.98 in - North 6.9 mph - N/A   Clear
6:00 AM 61 °F 31 °F 21% 29.85 in 9 mi North 2.3 mph - -   Clear
6:00 AM 60.8 °F 24.8 °F 25% 29.98 in - North 5.8 mph - N/A   Clear
7:00 AM 60.8 °F 24.8 °F 25% 30.01 in - West 4.6 mph - N/A   Clear
8:00 AM 71.6 °F 26.6 °F 19% 30.01 in - NNE 4.6 mph - N/A   Clear
9:00 AM 80 °F 32 °F 9% 29.85 in 9 mi NE 4.5 mph - -   Clear
9:00 AM 80.6 °F 24.8 °F 13% 30.01 in - NE 6.9 mph - N/A   Clear
10:00 AM 86.0 °F 24.8 °F 11% 30.01 in - East 4.6 mph - N/A   Clear
11:00 AM 87.8 °F 24.8 °F 10% 29.98 in 6.2 mi NNE 4.6 mph - N/A   Scattered Clouds
12:00 PM 91 °F 37 °F 8% 29.81 in 9 mi NNW 2.2 mph - -   Scattered Clouds
12:00 PM 91.4 °F 39.2 °F 16% 29.95 in 6.2 mi NNW 2.3 mph - N/A   Mostly Cloudy
1:00 PM 93.2 °F 26.6 °F 9% 29.95 in 6.2 mi West 6.9 mph - N/A   Mostly Cloudy
2:00 PM 93.2 °F 26.6 °F 9% 29.92 in 6.2 mi NNW 11.5 mph - N/A   Mostly Cloudy
3:00 PM 96 °F 26 °F 4% 29.75 in 9 mi West 8.1 mph - -   Scattered Clouds
3:00 PM 95.0 °F 23.0 °F 8% 29.89 in 6.2 mi West 16.1 mph - N/A   Scattered Clouds
4:00 PM 95.0 °F 23.0 °F 8% 29.89 in 6.2 mi West 25.3 mph - N/A   Scattered Clouds
5:00 PM 95.0 °F 23.0 °F 8% 29.89 in 6.2 mi West 11.5 mph - N/A   Scattered Clouds
6:00 PM 93 °F 28 °F 4% 29.73 in 9 mi West 20.1 mph - -   Scattered Clouds
6:00 PM 93.2 °F 23.0 °F 8% 29.86 in 6.2 mi West 20.7 mph - N/A   Mostly Cloudy
7:00 PM 89.6 °F 26.6 °F 10% 29.89 in 6.2 mi WNW 11.5 mph - N/A   Mostly Cloudy
8:00 PM 86.0 °F 26.6 °F 12% 29.89 in 6.2 mi Calm Calm - N/A   Scattered Clouds
9:00 PM 83 °F 38 °F 11% 29.75 in 9 mi Calm Calm - -   Scattered Clouds
9:00 PM 82.4 °F 24.8 °F 12% 29.92 in 6.2 mi Calm Calm - N/A   Scattered Clouds
10:00 PM 80.6 °F 24.8 °F 13% 29.92 in 6.2 mi Calm Calm - N/A   Scattered Clouds
11:00 PM 77.0 °F 24.8 °F 14% 29.92 in 6.2 mi WNW 4.6 mph - N/A   Scattered Clouds